Location: Bottenau
(48.5138°N, 8.0462°E)
Time: 10:07:39
(UTC+00:00)

Cosmos 2058 Rocket - Pass Details

Date: 18 April 2021
Orbit: 610 x 639 km, 82.5° (Epoch: 05 May)

Event Time Altitude Azimuth Distance (km) Brightness Sun altitude
Rises 18:52:06 0° 166° (SSE) 2,867 6.1 -5.2°
Reaches altitude 10° 18:54:26 10° 158° (SSE) 1,965 5.2 -5.6°
Maximum altitude 18:58:25 36° 92° (E) 972 3.6 -6.2°
Drops below altitude 10° 19:02:25 10° 25° (NNE) 1,977 5.7 -6.8°
Sets 19:04:46 0° 17° (NNE) 2,888 6.6 -7.1°
